• In Uzbekistan
  • List of Countries
  • For 7 days
  • Water Temperature
  • Satellite Maps
  • Weather Map
  • Weather Widgets
  • user-avatar
    Login

    Hourly Weather Banda

    Today, 20 October, Friday

    Time Temperature Precipitation Wind Pressure Humidity
    00:00 +30°C° 0 mm 2 mps 745 mmHg 59%
    01:00 +30°C° 0 mm 2 mps 745 mmHg 60%
    02:00 +29°C° 0 mm 2 mps 745 mmHg 61%
    03:00 +29°C° 0 mm 2 mps 745 mmHg 62%
    04:00 +29°C° 0 mm 2 mps 745 mmHg 63%
    05:00 +29°C° 0 mm 2 mps 745 mmHg 64%
    06:00 +30°C° 0 mm 2 mps 745 mmHg 63%
    07:00 +31°C° 0 mm 3 mps 746 mmHg 61%
    08:00 +33°C° 0 mm 3 mps 746 mmHg 60%
    09:00 +34°C° 0 mm 4 mps 746 mmHg 54%
    10:00 +36°C° 0 mm 4 mps 745 mmHg 49%
    11:00 +37°C° 0 mm 4 mps 745 mmHg 44%
    12:00 +37°C° 0 mm 5 mps 744 mmHg 42%
    13:00 +39°C° 0 mm 5 mps 744 mmHg 41%
    14:00 +39°C° 0 mm 5 mps 743 mmHg 39%
    15:00 +37°C° 0 mm 4 mps 743 mmHg 42%
    16:00 +36°C° 0 mm 3 mps 743 mmHg 46%
    17:00 +35°C° 0 mm 3 mps 743 mmHg 49%
    18:00 +34°C° 0 mm 3 mps 744 mmHg 51%
    19:00 +34°C° 0 mm 2 mps 744 mmHg 52%
    20:00 +32°C° 0 mm 2 mps 745 mmHg 54%
    21:00 +31°C° 0 mm 2 mps 745 mmHg 56%
    22:00 +31°C° 0 mm 2 mps 745 mmHg 58%
    23:00 +31°C° 0 mm 2 mps 745 mmHg 60%

    Tomorrow, 21 October, Saturday

    Time Temperature Precipitation Wind Pressure Humidity
    00:00 +30°C° 0 mm 2 mps 745 mmHg 65%
    01:00 +29°C° 0 mm 2 mps 744 mmHg 69%
    02:00 +29°C° 0 mm 2 mps 744 mmHg 74%
    03:00 +28°C° 0 mm 1 mps 744 mmHg 76%
    04:00 +28°C° 0 mm 1 mps 744 mmHg 78%
    05:00 +28°C° 0 mm 1 mps 744 mmHg 81%
    06:00 +29°C° 0 mm 1 mps 745 mmHg 76%
    07:00 +30°C° 0 mm 1 mps 745 mmHg 72%
    08:00 +31°C° 0 mm 1 mps 746 mmHg 68%
    09:00 +32°C° 0 mm 1 mps 745 mmHg 59%
    10:00 +34°C° 0 mm 1 mps 745 mmHg 50%
    11:00 +36°C° 0 mm 2 mps 745 mmHg 42%
    12:00 +37°C° 0 mm 2 mps 744 mmHg 37%
    13:00 +38°C° 0 mm 3 mps 743 mmHg 32%
    14:00 +39°C° 0 mm 3 mps 743 mmHg 27%
    15:00 +37°C° 0 mm 3 mps 742 mmHg 29%
    16:00 +36°C° 0 mm 2 mps 742 mmHg 31%
    17:00 +35°C° 0 mm 2 mps 742 mmHg 33%
    18:00 +34°C° 0 mm 2 mps 743 mmHg 33%
    19:00 +32°C° 0 mm 2 mps 743 mmHg 32%
    20:00 +31°C° 0 mm 1 mps 744 mmHg 32%
    21:00 +31°C° 0 mm 1 mps 744 mmHg 32%
    22:00 +30°C° 0 mm 1 mps 744 mmHg 32%
    23:00 +30°C° 0 mm 1 mps 744 mmHg 32%

    Day after tomorrow, 22 October, Sunday

    Time Temperature Precipitation Wind Pressure Humidity
    00:00 +29°C° 0 mm 1 mps 743 mmHg 33%
    01:00 +28°C° 0 mm 2 mps 743 mmHg 34%
    02:00 +28°C° 0 mm 2 mps 743 mmHg 35%
    03:00 +27°C° 0 mm 2 mps 743 mmHg 36%
    04:00 +27°C° 0 mm 2 mps 743 mmHg 37%
    05:00 +27°C° 0 mm 2 mps 743 mmHg 38%
    06:00 +28°C° 0 mm 2 mps 744 mmHg 38%
    07:00 +29°C° 0 mm 3 mps 745 mmHg 38%
    08:00 +30°C° 0 mm 3 mps 745 mmHg 38%
    09:00 +33°C° 0 mm 3 mps 745 mmHg 32%
    10:00 +36°C° 0 mm 3 mps 745 mmHg 27%
    11:00 +38°C° 0 mm 3 mps 745 mmHg 21%
    12:00 +38°C° 0 mm 4 mps 744 mmHg 18%
    13:00 +40°C° 0 mm 4 mps 744 mmHg 15%
    14:00 +41°C° 0 mm 4 mps 743 mmHg 12%
    15:00 +38°C° 0 mm 3 mps 743 mmHg 15%
    16:00 +36°C° 0 mm 3 mps 743 mmHg 17%
    17:00 +34°C° 0 mm 2 mps 743 mmHg 20%
    18:00 +32°C° 0 mm 1 mps 744 mmHg 20%
    19:00 +31°C° 0 mm 1 mps 744 mmHg 20%
    20:00 +28°C° 0 mm 0 mps 745 mmHg 20%
    21:00 +30°C° 0 mm 1 mps 745 mmHg 20%
    22:00 +29°C° 0 mm 1 mps 745 mmHg 21%
    23:00 +29°C° 0 mm 2 mps 745 mmHg 21%

    23 October, Monday

    Time Temperature Precipitation Wind Pressure Humidity
    00:00 +28°C° 0 mm 2 mps 745 mmHg 22%
    01:00 +27°C° 0 mm 2 mps 745 mmHg 23%
    02:00 +27°C° 0 mm 1 mps 744 mmHg 24%
    03:00 +26°C° 0 mm 2 mps 745 mmHg 25%
    04:00 +26°C° 0 mm 2 mps 745 mmHg 26%
    05:00 +26°C° 0 mm 2 mps 745 mmHg 26%
    06:00 +27°C° 0 mm 2 mps 746 mmHg 27%
    07:00 +28°C° 0 mm 3 mps 746 mmHg 28%
    08:00 +29°C° 0 mm 3 mps 747 mmHg 29%
    09:00 +31°C° 0 mm 3 mps 747 mmHg 26%
    10:00 +34°C° 0 mm 3 mps 747 mmHg 23%
    11:00 +36°C° 0 mm 3 mps 746 mmHg 20%
    12:00 +37°C° 0 mm 3 mps 746 mmHg 18%
    13:00 +38°C° 0 mm 3 mps 745 mmHg 16%
    14:00 +39°C° 0 mm 3 mps 745 mmHg 15%
    15:00 +37°C° 0 mm 2 mps 745 mmHg 17%
    16:00 +35°C° 0 mm 2 mps 745 mmHg 19%
    17:00 +33°C° 0 mm 1 mps 745 mmHg 22%
    18:00 +32°C° 0 mm 1 mps 745 mmHg 22%
    19:00 +31°C° 0 mm 1 mps 746 mmHg 22%
    20:00 +30°C° 0 mm 1 mps 746 mmHg 23%
    21:00 +29°C° 0 mm 1 mps 747 mmHg 24%
    22:00 +29°C° 0 mm 1 mps 747 mmHg 24%
    23:00 +28°C° 0 mm 2 mps 747 mmHg 25%

    24 October, Tuesday

    Time Temperature Precipitation Wind Pressure Humidity
    00:00 +28°C° 0 mm 2 mps 747 mmHg 26%
    01:00 +28°C° 0 mm 2 mps 747 mmHg 27%
    02:00 +27°C° 0 mm 2 mps 746 mmHg 28%
    03:00 +27°C° 0 mm 2 mps 747 mmHg 29%
    04:00 +26°C° 0 mm 2 mps 747 mmHg 30%
    05:00 +26°C° 0 mm 2 mps 747 mmHg 31%
    06:00 +27°C° 0 mm 2 mps 748 mmHg 31%
    07:00 +28°C° 0 mm 2 mps 748 mmHg 31%
    08:00 +30°C° 0 mm 2 mps 749 mmHg 31%
    09:00 +32°C° 0 mm 2 mps 749 mmHg 28%
    10:00 +35°C° 0 mm 3 mps 749 mmHg 25%
    11:00 +37°C° 0 mm 3 mps 748 mmHg 22%
    12:00 +37°C° 0 mm 3 mps 748 mmHg 20%
    13:00 +38°C° 0 mm 3 mps 747 mmHg 18%
    14:00 +40°C° 0 mm 4 mps 746 mmHg 17%
    15:00 +37°C° 0 mm 3 mps 746 mmHg 19%
    16:00 +35°C° 0 mm 2 mps 746 mmHg 22%
    17:00 +34°C° 0 mm 2 mps 746 mmHg 24%
    18:00 +32°C° 0 mm 1 mps 747 mmHg 25%
    19:00 +31°C° 0 mm 1 mps 747 mmHg 26%
    20:00 +30°C° 0 mm 1 mps 748 mmHg 27%
    21:00 +29°C° 0 mm 1 mps 748 mmHg 28%
    22:00 +28°C° 0 mm 1 mps 748 mmHg 29%
    23:00 +28°C° 0 mm 1 mps 748 mmHg 30%

    25 October, Wednesday

    Time Temperature Precipitation Wind Pressure Humidity
    00:00 +27°C° 0 mm 1 mps 748 mmHg 30%
    01:00 +27°C° 0 mm 1 mps 748 mmHg 31%
    02:00 +26°C° 0 mm 1 mps 748 mmHg 31%
    03:00 +26°C° 0 mm 1 mps 748 mmHg 31%
    04:00 +25°C° 0 mm 1 mps 748 mmHg 32%
    05:00 +25°C° 0 mm 1 mps 749 mmHg 32%
    06:00 +26°C° 0 mm 1 mps 749 mmHg 32%
    07:00 +27°C° 0 mm 1 mps 750 mmHg 31%
    08:00 +29°C° 0 mm 1 mps 751 mmHg 30%
    09:00 +30°C° 0 mm 1 mps 751 mmHg 27%
    10:00 +32°C° 0 mm 1 mps 751 mmHg 25%
    11:00 +34°C° 0 mm 1 mps 750 mmHg 22%
    12:00 +36°C° 0 mm 2 mps 750 mmHg 20%
    13:00 +37°C° 0 mm 2 mps 749 mmHg 18%
    14:00 +37°C° 0 mm 2 mps 748 mmHg 16%
    15:00 +36°C° 0 mm 2 mps 748 mmHg 19%
    16:00 +34°C° 0 mm 2 mps 748 mmHg 22%
    17:00 +32°C° 0 mm 1 mps 748 mmHg 24%
    18:00 +31°C° 0 mm 1 mps 749 mmHg 26%
    19:00 +30°C° 0 mm 1 mps 749 mmHg 28%
    20:00 +29°C° 0 mm 1 mps 749 mmHg 29%
    21:00 +28°C° 0 mm 1 mps 749 mmHg 32%
    22:00 +27°C° 0 mm 1 mps 749 mmHg 34%
    23:00 +27°C° 0 mm 1 mps 749 mmHg 37%
    Show more